Gwinn, MI

4:23 AM EDT on April 23, 2017 (GMT -0400)
Sawyer International

Weather History for KSAW - January, 2012

Change the Weather History Date:

Wednesday, January 18, 2012

  Actual Average (KESC) Record (KESC)
Temperature  
Mean Temperature 14 °F -  
Max Temperature 19 °F 26 °F 41 °F (1981)
Min Temperature 8 °F 9 °F -19 °F (1962)
Degree Days  
Heating Degree Days 52    
Moisture  
Dew Point 4 °F    
Average Humidity 68    
Maximum Humidity 80    
Minimum Humidity 46    
Precipitation  
Precipitation 0.00 in - - ()
Sea Level Pressure  
Sea Level Pressure 29.91 in    
Wind  
Wind Speed 12 mph (WSW)    
Max Wind Speed 24 mph    
Max Gust Speed 31 mph    
Visibility 8 miles    
Events Snow    
Averages and records for this station are not official NWS values.
T = Trace of Precipitation, MM = Missing Value Source: NWS Daily Summary

Daily Weather History Graph

Daily Weather History Graph

Search for Another Location

Airport or City:

Trip Planner

Search our weather history database for the weather conditions in past years. The results will help you decide how hot, cold, wet, or windy it might be!

Date:

Astronomy

Jan. 18, 2012 Rise Set
Actual Time 8:27 AM EST 5:33 PM EST
Civil Twilight 7:53 AM EST 6:06 PM EST
Nautical Twilight 7:16 AM EST 6:43 PM EST
Astronomical Twilight 6:40 AM EST 7:19 PM EST
Moon 3:57 AM EST (1/18) 1:09 PM EST (1/18)
Length of Visible Light 10h 13m
Length of Day
9h 06m
Waning Crescent, 25% of the Moon is Illuminated
Jan 18
Waning Crescent
Jan 23
New
Jan 30
First Quarter
Feb 7
Full
Feb 14
Last Quarter

Hourly Weather History & Observations

Time (EST) Temp. Windchill Dew Point Humidity Pressure Visibility Wind Dir Wind Speed Gust Speed Precip Events Conditions
12:17 AM 11.3 °F -6.0 °F 3.7 °F 72% 30.03 in 10.0 mi NW 17.3 mph 21.9 mph N/A   Overcast
12:37 AM 11.3 °F -4.9 °F 3.6 °F 71% 30.04 in 10.0 mi WNW 15.0 mph - N/A   Overcast
12:57 AM 10.9 °F -3.4 °F 3.2 °F 71% 30.04 in 10.0 mi WNW 11.5 mph - N/A   Overcast
1:17 AM 11.1 °F -4.5 °F 3.0 °F 70% 30.05 in 10.0 mi NW 13.8 mph 17.3 mph N/A   Overcast
1:37 AM 11.1 °F -5.1 °F 3.0 °F 70% 30.05 in 10.0 mi NNW 15.0 mph 20.7 mph N/A   Overcast
1:57 AM 11.1 °F -3.2 °F 3.2 °F 70% 30.05 in 10.0 mi NW 11.5 mph - N/A   Overcast
2:17 AM 11.1 °F -1.6 °F 3.2 °F 70% 30.05 in 10.0 mi NW 9.2 mph 17.3 mph N/A   Overcast
2:37 AM 11.1 °F 4.9 °F 3.6 °F 72% 30.05 in 10.0 mi NW 3.5 mph - N/A   Overcast
2:56 AM 10.4 °F 2.2 °F 3.2 °F 73% 30.06 in 7.0 mi WNW 4.6 mph - N/A   Overcast
3:17 AM 10.8 °F 4.5 °F 5.0 °F 78% 30.06 in 3.0 mi WNW 3.5 mph - N/A Snow Light Snow
3:37 AM 11.3 °F 3.3 °F 3.9 °F 72% 30.06 in 7.0 mi WNW 4.6 mph - N/A Snow Light Snow
3:56 AM 11.3 °F 3.3 °F 3.6 °F 71% 30.06 in 10.0 mi WNW 4.6 mph - N/A   Overcast
4:17 AM 11.3 °F 1.9 °F 3.9 °F 72% 30.06 in 10.0 mi WNW 5.8 mph - N/A   Overcast
4:37 AM 11.3 °F 5.1 °F 4.1 °F 73% 30.06 in 7.0 mi WNW 3.5 mph - N/A Snow Light Snow
4:56 AM 11.8 °F 3.9 °F 4.1 °F 71% 30.07 in 10.0 mi West 4.6 mph - N/A   Overcast
5:17 AM 11.8 °F 3.9 °F 4.1 °F 71% 30.08 in 10.0 mi WNW 4.6 mph - N/A   Overcast
5:36 AM 11.3 °F 5.1 °F 5.0 °F 76% 30.07 in 4.0 mi WNW 3.5 mph - N/A Snow Light Snow
5:57 AM 11.1 °F 3.1 °F 5.5 °F 78% 30.07 in 1.8 mi WNW 4.6 mph - N/A Snow Light Snow
6:55 AM 10.4 °F -0.4 °F 3.2 °F 73% 30.07 in 10.0 mi West 6.9 mph - N/A   Overcast
7:50 AM 10.4 °F 2.2 °F 3.2 °F 73% 30.06 in 10.0 mi SW 4.6 mph - N/A   Overcast
8:55 AM 8.6 °F -2.6 °F 3.2 °F 79% 30.05 in 10.0 mi SW 6.9 mph - N/A   Scattered Clouds
9:55 AM 8.6 °F -3.7 °F 1.4 °F 73% 30.05 in 10.0 mi SW 8.1 mph - N/A   Clear
10:50 AM 10.4 °F -3.3 °F 1.4 °F 67% 30.03 in 10.0 mi SW 10.4 mph - N/A   Clear
11:50 AM 12.2 °F -1.0 °F 3.2 °F 67% 30.01 in 10.0 mi SSW 10.4 mph - N/A   Clear
12:50 PM 14.0 °F 1.2 °F 1.4 °F 57% 29.95 in 10.0 mi SSW 10.4 mph - N/A   Clear
1:50 PM 15.8 °F 2.1 °F 1.4 °F 53% 29.90 in 10.0 mi South 12.7 mph - N/A   Clear
2:50 PM 17.6 °F 2.7 °F 3.2 °F 53% 29.85 in 10.0 mi SSW 16.1 mph 23.0 mph N/A   Clear
3:50 PM 19.4 °F 5.0 °F 1.4 °F 46% 29.82 in 10.0 mi South 16.1 mph 23.0 mph N/A   Clear
4:50 PM 17.6 °F 0.9 °F 1.4 °F 49% 29.78 in 10.0 mi SSW 20.7 mph 24.2 mph N/A   Clear
5:50 PM 15.8 °F -0.2 °F 1.4 °F 53% 29.73 in 10.0 mi South 17.3 mph 23.0 mph N/A   Clear
6:50 PM 14.0 °F -4.3 °F 3.2 °F 62% 29.69 in 10.0 mi South 21.9 mph 27.6 mph N/A   Scattered Clouds
7:50 PM 12.2 °F -6.7 °F 3.2 °F 67% 29.66 in 10.0 mi SSW 21.9 mph 31.1 mph N/A   Clear
8:50 PM 12.2 °F -7.1 °F 3.2 °F 67% 29.63 in 10.0 mi SSW 23.0 mph 31.1 mph N/A   Clear
9:50 PM 12.2 °F -6.7 °F 3.2 °F 67% 29.62 in 7.0 mi SSW 21.9 mph 26.5 mph N/A   Mostly Cloudy
10:17 PM 12.9 °F -6.5 °F 4.1 °F 68% 29.60 in 7.0 mi SSW 24.2 mph 27.6 mph N/A   Overcast
10:37 PM 12.9 °F -6.1 °F 4.6 °F 70% 29.59 in 7.0 mi SSW 23.0 mph 28.8 mph N/A   Overcast
10:57 PM 13.1 °F -4.6 °F 5.0 °F 70% 29.58 in 7.0 mi SSW 19.6 mph 27.6 mph N/A   Overcast
11:17 PM 13.5 °F -3.2 °F 5.4 °F 70% 29.57 in 7.0 mi SSW 17.3 mph 27.6 mph N/A   Overcast
11:37 PM 13.6 °F -3.9 °F 5.7 °F 71% 29.56 in 5.0 mi SSW 19.6 mph 23.0 mph N/A Snow Light Snow
11:57 PM 13.1 °F -3.7 °F 7.9 °F 80% 29.55 in 1.5 mi SSW 17.3 mph 23.0 mph N/A Snow Light Snow